FW5486 Weather Reports


Display with metric or nautical units.
time (UTC)temp
F
wind
direction
speed
MPH
gust
MPH
rain 1hr
in
rain 24hr
in
rain mn
in
humidity
%
barometer
mb
20260905202821 86 286 2.0 6.0 0.00 0.01 0.01 72 1013.7
20260905202321 86 267 2.0 6.0 0.00 0.01 0.01 72 1013.6
20260905201820 86 248 1.0 3.0 0.00 0.01 0.01 73 1013.6
20260905201318 87 304 1.0 3.0 0.00 0.01 0.01 71 1013.4
20260905200818 87 291 2.0 3.0 0.00 0.01 0.01 71 1013.4
20260905200317 88 286 1.0 3.0 0.00 0.01 0.01 70 1013.4
20260905195815 89 288 1.0 4.0 0.00 0.01 0.01 69 1013.5
20260905195315 89 288 2.0 4.0 0.00 0.01 0.01 69 1013.7
20260905195047 90 297 2.0 4.0 0.00 0.01 0.01 75 1013.8
20260905194543 89 270 1.0 4.0 0.00 0.01 0.01 71 1013.9
20260905194043 90 304 1.0 3.0 0.00 0.01 0.01 70 1013.9
20260905193313 90 283 1.0 3.0 0.00 0.01 0.01 71 1014.0
20260905193037 90 355 1.0 3.0 0.00 0.01 0.01 68 1014.1
20260905192306 90 26 1.0 2.0 0.00 0.01 0.01 72 1014.0
20260905192037 90 139 1.0 2.0 0.00 0.01 0.01 68 1013.9
20260905191303 90 86 1.0 2.0 0.00 0.01 0.01 68 1013.9
20260905190804 89 291 1.0 3.0 0.00 0.01 0.01 69 1013.8
20260905190534 90 292 2.0 7.0 0.00 0.01 0.01 67 1013.7
20260905185801 90 44 2.0 8.0 0.00 0.01 0.01 66 1013.7
20260905185300 90 80 3.0 8.0 0.00 0.01 0.01 66 1013.6
20260905184800 90 115 3.0 8.0 0.00 0.01 0.01 67 1013.7
20260905184532 90 123 2.0 8.0 0.00 0.01 0.01 67 1013.8
20260905183758 90 248 1.0 4.0 0.00 0.01 0.01 70 1013.9
20260905183258 90 130 1.0 3.0 0.00 0.01 0.01 69 1014.0
20260905182751 89 117 1.0 3.0 0.00 0.01 0.01 72 1014.1
20260905182248 89 213 1.0 3.0 0.01 0.01 0.01 76 1014.4
20260905181747 88 249 2.0 3.0 0.01 0.01 0.01 74 1014.5
20260905181246 87 185 2.0 3.0 0.01 0.01 0.01 74 1014.5
20260905180745 87 98 1.0 3.0 0.01 0.01 0.01 76 1014.4
20260905180244 86 121 1.0 3.0 0.01 0.01 0.01 76 1014.5
20260905175740 85 111 1.0 3.0 0.01 0.01 0.01 77 1014.6
20260905175513 84 126 1.0 2.0 0.01 0.01 0.01 80 1014.7
20260905174741 83 121 0.0 2.0 0.01 0.01 0.01 82 1014.8
20260905174239 82 191 0.0 2.0 0.01 0.01 0.01 87 1014.8
20260905173741 81 163 0.0 2.0 0.01 0.01 0.01 86 1014.9
20260905173234 81 132 1.0 3.0 0.01 0.01 0.01 87 1015.0
20260905172735 80 65 2.0 4.0 0.01 0.01 0.01 86 1015.2
20260905172508 80 131 2.0 4.0 0.00 0.00 0.00 87 1015.2
20260905171736 80 150 3.0 10.0 0.00 0.00 0.00 88 1015.1
20260905171233 81 132 4.0 10.0 0.00 0.00 0.00 86 1015.2
20260905171004 81 105 6.0 13.0 0.00 0.00 0.00 85 1015.2
20260905170228 81 105 6.0 13.0 0.00 0.00 0.00 86 1015.2
20260905165728 81 115 5.0 10.0 0.00 0.00 0.00 87 1015.4
20260905165229 81 134 3.0 9.0 0.00 0.00 0.00 87 1015.3
20260905164728 81 132 3.0 7.0 0.00 0.00 0.00 86 1015.5
20260905164228 81 166 4.0 8.0 0.00 0.00 0.00 85 1015.5
20260905163727 82 118 4.0 8.0 0.00 0.00 0.00 83 1015.3
20260905163222 83 130 4.0 9.0 0.00 0.00 0.00 82 1015.2
20260905162721 84 151 3.0 9.0 0.00 0.00 0.00 80 1015.2
20260905162220 85 148 1.0 5.0 0.00 0.00 0.00 80 1015.3
20260905161953 85 113 0.0 2.0 0.00 0.00 0.00 79 1015.4
20260905161222 85 349 0.0 2.0 0.00 0.00 0.00 79 1015.4
20260905160722 86 349 0.0 0.0 0.00 0.00 0.00 80 1015.5
20260905160215 86 349 0.0 2.0 0.00 0.00 0.00 79 1015.5
20260905155714 86 349 0.0 2.0 0.00 0.00 0.00 79 1015.4
20260905155212 86 346 0.0 2.0 0.00 0.00 0.00 80 1015.4
20260905154710 86 355 0.0 0.0 0.00 0.00 0.00 79 1015.5
20260905154443 86 355 0.0 1.0 0.00 0.00 0.00 79 1015.5
20260905153938 87 355 0.0 2.0 0.00 0.00 0.00 78 1015.5
20260905153205 87 355 0.0 2.0 0.00 0.00 0.00 78 1015.5
20260905152938 87 333 0.0 4.0 0.00 0.00 0.00 77 1015.5
20260905152437 87 349 0.0 4.0 0.00 0.00 0.00 77 1015.5
20260905151704 87 348 1.0 5.0 0.00 0.00 0.00 79 1015.4
20260905151209 86 24 1.0 4.0 0.00 0.00 0.00 78 1015.4
20260905151204 86 297 1.0 5.0 0.00 0.00 0.00 78 1015.3
20260905150159 86 0 1.0 3.0 0.00 0.00 0.00 78 1015.3
20260905145658 86 346 1.0 3.0 0.00 0.00 0.00 78 1015.3
20260905145426 85 336 2.0 4.0 0.00 0.00 0.00 81 1015.4
20260905144654 85 49 2.0 4.0 0.00 0.00 0.00 80 1015.3
20260905144155 84 18 1.0 2.0 0.00 0.00 0.00 82 1015.3
20260905143922 84 14 1.0 3.0 0.00 0.00 0.00 82 1015.4
20260905143150 83 355 1.0 3.0 0.00 0.00 0.00 84 1015.4
20260905142650 83 32 1.0 3.0 0.00 0.00 0.00 84 1015.5
20260905142149 82 30 0.0 3.0 0.00 0.00 0.00 84 1015.5
20260905141647 82 342 0.0 0.0 0.00 0.00 0.00 86 1015.4
20260905141147 82 331 0.0 2.0 0.00 0.00 0.00 86 1015.4
20260905140644 81 331 0.0 2.0 0.00 0.00 0.00 87 1015.4
20260905140145 81 40 0.0 2.0 0.00 0.00 0.00 88 1015.4
20260905135645 80 40 0.0 2.0 0.00 0.00 0.00 88 1015.4
20260905135145 80 40 0.0 1.0 0.00 0.00 0.00 89 1015.4
20260905134644 80 68 1.0 2.0 0.00 0.00 0.00 89 1015.4
20260905134148 79 68 1.0 2.0 0.00 0.00 0.00 89 1015.3
20260905134141 79 64 1.0 2.0 0.00 0.00 0.00 90 1015.3
20260905133140 79 5 1.0 2.0 0.00 0.00 0.00 90 1015.3
20260905132640 79 21 1.0 2.0 0.00 0.01 0.00 90 1015.3
20260905132140 79 61 1.0 3.0 0.00 0.01 0.00 91 1015.3
20260905131641 78 47 1.0 3.0 0.00 0.01 0.00 90 1015.4
20260905131141 78 26 1.0 2.0 0.00 0.01 0.00 90 1015.3
20260905130636 78 41 0.0 2.0 0.00 0.01 0.00 91 1015.4
20260905130135 78 41 0.0 2.0 0.00 0.01 0.00 91 1015.4
20260905125907 78 38 0.0 2.0 0.00 0.01 0.00 92 1015.4
20260905125136 78 38 0.0 0.0 0.00 0.01 0.00 92 1015.4
20260905124637 77 38 0.0 2.0 0.00 0.01 0.00 92 1015.4
20260905124137 77 38 0.0 2.0 0.00 0.01 0.00 93 1015.4
20260905123636 77 38 0.0 2.0 0.00 0.01 0.00 93 1015.4
20260905123135 77 37 0.0 2.0 0.00 0.01 0.00 93 1015.4
20260905122637 77 54 0.0 2.0 0.00 0.01 0.00 93 1015.3
20260905122137 77 55 0.0 2.0 0.00 0.01 0.00 93 1015.3
20260905121636 77 54 0.0 2.0 0.00 0.01 0.00 93 1015.1
20260905121403 77 54 0.0 1.0 0.00 0.01 0.00 93 1015.1
20260905120632 77 54 0.0 2.0 0.00 0.01 0.00 93 1015.1
20260905120133 77 54 0.0 2.0 0.00 0.01 0.00 93 1015.2
20260905115904 77 54 0.0 0.0 0.00 0.01 0.00 93 1015.2
20260905115131 76 54 0.0 0.0 0.00 0.01 0.00 93 1015.0
20260905114631 76 54 0.0 1.0 0.00 0.01 0.00 93 1015.0
20260905114129 76 54 0.0 2.0 0.00 0.01 0.00 93 1014.8
20260905113628 76 53 0.0 2.0 0.00 0.01 0.00 93 1014.7
20260905113127 76 53 0.0 0.0 0.00 0.01 0.00 93 1014.7
20260905112629 76 53 0.0 0.0 0.00 0.01 0.00 93 1014.5
20260905112127 76 53 0.0 0.0 0.00 0.01 0.00 93 1014.3
20260905111625 76 53 0.0 0.0 0.00 0.01 0.00 93 1014.4
20260905111125 76 53 0.0 0.0 0.00 0.01 0.00 93 1014.4
20260905110623 76 53 0.0 0.0 0.00 0.01 0.00 93 1014.3
20260905110121 76 53 0.0 0.0 0.00 0.01 0.00 93 1014.2
20260905105621 76 53 0.0 0.0 0.00 0.01 0.00 93 1014.2
20260905105121 76 53 0.0 0.0 0.00 0.01 0.00 93 1014.2
20260905104619 76 53 0.0 0.0 0.00 0.01 0.00 92 1014.2
20260905104120 77 53 0.0 0.0 0.00 0.01 0.00 93 1014.2
20260905103612 77 53 0.0 0.0 0.00 0.01 0.00 92 1014.2
20260905103111 77 53 0.0 0.0 0.00 0.01 0.00 92 1014.2
20260905102839 77 53 0.0 0.0 0.00 0.01 0.00 92 1014.2
20260905102107 77 53 0.0 0.0 0.00 0.01 0.00 92 1014.3
20260905101608 77 53 0.0 0.0 0.00 0.01 0.00 92 1014.3
20260905101101 77 53 0.0 0.0 0.00 0.01 0.00 92 1014.3
20260905100559 77 53 0.0 0.0 0.00 0.01 0.00 92 1014.4
20260905100330 77 53 0.0 0.0 0.00 0.01 0.00 92 1014.3
20260905100214 77 53 0.0 0.0 0.00 0.01 0.00 92 1014.3
20260905095055 77 53 0.0 0.0 0.00 0.01 0.00 92 1014.2
20260905094823 77 53 0.0 0.0 0.00 0.01 0.00 92 1014.1
20260905094050 77 53 0.0 0.0 0.00 0.01 0.00 92 1014.2
20260905093547 77 53 0.0 0.0 0.00 0.01 0.00 92 1014.2
20260905093049 77 53 0.0 2.0 0.00 0.01 0.00 92 1014.1
20260905092549 77 53 0.0 2.0 0.00 0.01 0.00 92 1014.3
20260905092320 77 87 0.0 2.0 0.00 0.01 0.00 92 1014.3
20260905091547 77 87 1.0 2.0 0.00 0.01 0.00 92 1014.2
20260905091044 77 87 0.0 2.0 0.00 0.01 0.00 92 1014.1
20260905090815 77 128 0.0 2.0 0.00 0.01 0.00 92 1014.1
20260905090043 77 142 0.0 0.0 0.00 0.01 0.00 92 1014.1
20260905085542 77 142 0.0 0.0 0.00 0.01 0.00 91 1014.1
20260905085043 77 142 0.0 0.0 0.00 0.01 0.00 92 1014.1
20260905084539 77 142 0.0 0.0 0.00 0.01 0.00 92 1014.2
20260905084308 77 142 0.0 0.0 0.00 0.01 0.00 92 1014.2
20260905083539 77 142 0.0 0.0 0.00 0.01 0.00 91 1014.2
20260905083038 77 142 0.0 0.0 0.00 0.01 0.00 91 1014.2
20260905082537 77 142 0.0 0.0 0.00 0.01 0.00 91 1014.2
20260905082037 77 142 0.0 0.0 0.00 0.01 0.00 91 1014.2
20260905081532 77 142 0.0 0.0 0.00 0.01 0.00 92 1014.2
20260905081031 77 142 0.0 0.0 0.00 0.01 0.00 92 1014.2
20260905080532 77 142 0.0 0.0 0.00 0.01 0.00 91 1014.2
20260905080303 77 142 0.0 0.0 0.00 0.01 0.00 91 1014.3
20260905080152 77 142 0.0 0.0 0.00 0.01 0.00 91 1014.3
20260905075028 77 142 0.0 0.0 0.00 0.01 0.00 91 1014.3
20260905074525 77 142 0.0 0.0 0.00 0.01 0.00 91 1014.2
20260905074024 77 142 0.0 0.0 0.00 0.01 0.00 91 1014.2
20260905073525 77 142 0.0 0.0 0.00 0.01 0.00 91 1014.3
20260905073024 77 142 0.0 0.0 0.00 0.01 0.00 91 1014.2
20260905072523 77 142 0.0 0.0 0.00 0.01 0.00 91 1014.4
20260905072253 77 142 0.0 0.0 0.00 0.01 0.00 91 1014.3
20260905071517 77 142 0.0 0.0 0.00 0.01 0.00 91 1014.3
20260905071015 77 142 0.0 0.0 0.00 0.01 0.00 91 1014.4
20260905070513 77 142 0.0 0.0 0.00 0.01 0.00 91 1014.5
20260905070010 78 142 0.0 0.0 0.00 0.01 0.00 91 1014.4
20260905065510 78 142 0.0 0.0 0.00 0.01 0.00 91 1014.3
20260905065009 78 142 0.0 0.0 0.00 0.01 0.00 91 1014.3
20260905064506 78 142 0.0 0.0 0.00 0.01 0.00 91 1014.3
20260905064012 78 142 0.0 0.0 0.00 0.01 0.00 91 1014.4
20260905064006 78 142 0.0 0.0 0.00 0.01 0.00 91 1014.4
20260905063004 78 142 0.0 0.0 0.00 0.01 0.00 90 1014.4
20260905062507 78 142 0.0 0.0 0.00 0.01 0.00 90 1014.3
20260905062229 78 142 0.0 0.0 0.00 0.01 0.00 90 1014.3
20260905061457 78 142 0.0 0.0 0.00 0.01 0.00 90 1014.2
20260905061229 78 142 0.0 0.0 0.00 0.01 0.00 90 1014.2
20260905060953 78 142 0.0 0.0 0.00 0.01 0.00 90 1014.2
20260905055949 78 142 0.0 0.0 0.00 0.01 0.00 89 1014.2
20260905055449 78 142 0.0 0.0 0.00 0.01 0.00 89 1014.3
20260905055221 78 142 0.0 0.0 0.00 0.01 0.00 89 1014.3
20260905054720 78 142 0.0 0.0 0.00 0.01 0.00 89 1014.4
20260905053951 78 142 0.0 0.0 0.00 0.01 0.00 89 1014.4
20260905053451 78 142 0.0 0.0 0.00 0.01 0.00 89 1014.5
20260905052945 78 142 0.0 0.0 0.00 0.01 0.00 89 1014.5
20260905052446 79 142 0.0 0.0 0.00 0.01 0.00 88 1014.4
20260905051947 79 142 0.0 0.0 0.00 0.01 0.00 88 1014.5
20260905051450 79 142 0.0 0.0 0.00 0.01 0.00 88 1014.5
20260905051445 79 142 0.0 0.0 0.00 0.01 0.00 88 1014.6
20260905050446 79 142 0.0 0.0 0.00 0.01 0.00 88 1014.4
20260905045940 79 142 0.0 0.0 0.00 0.01 0.01 88 1014.3
20260905045711 79 142 0.0 0.0 0.00 0.01 0.01 87 1014.3
20260905044937 79 142 0.0 0.0 0.00 0.01 0.01 87 1014.3
20260905044438 79 142 0.0 0.0 0.00 0.01 0.01 87 1014.4
20260905043939 79 142 0.0 0.0 0.00 0.01 0.01 87 1014.4
20260905043439 79 142 0.0 0.0 0.00 0.01 0.01 87 1014.5
20260905042939 79 142 0.0 0.0 0.00 0.01 0.01 87 1014.5
20260905042440 79 142 0.0 1.0 0.00 0.01 0.01 86 1014.5
20260905041939 80 142 0.0 2.0 0.00 0.01 0.01 86 1014.5
20260905041437 80 142 0.0 2.0 0.00 0.01 0.01 86 1014.6
20260905040936 80 142 0.0 0.0 0.00 0.01 0.01 86 1014.7
20260905040706 80 142 0.0 0.0 0.00 0.01 0.01 86 1014.8
20260905035933 80 142 0.0 0.0 0.00 0.01 0.01 86 1014.8
20260905035440 80 142 0.0 0.0 0.00 0.01 0.01 85 1014.9
20260905035433 80 142 0.0 0.0 0.00 0.01 0.01 85 1014.8
20260905034933 80 142 0.0 0.0 0.00 0.01 0.01 85 1014.7
20260905033931 81 142 0.0 2.0 0.00 0.01 0.01 85 1014.8
20260905033425 81 142 1.0 2.0 0.00 0.01 0.01 85 1014.9
20260905033154 81 142 0.0 2.0 0.00 0.01 0.01 85 1015.0
20260905032421 81 142 0.0 2.0 0.00 0.01 0.01 85 1015.1
20260905031919 81 148 0.0 2.0 0.00 0.01 0.01 85 1015.1
20260905031651 81 154 0.0 2.0 0.00 0.01 0.01 85 1015.2
20260905030913 81 154 0.0 2.0 0.00 0.01 0.01 85 1015.2
20260905030411 81 154 0.0 2.0 0.00 0.01 0.01 84 1015.2
20260905025909 81 154 0.0 2.0 0.00 0.01 0.01 84 1015.2
20260905025407 81 150 0.0 2.0 0.00 0.01 0.01 84 1015.3
20260905024908 81 150 1.0 2.0 0.00 0.01 0.01 84 1015.3
20260905024631 81 143 1.0 2.0 0.00 0.01 0.01 84 1015.3
20260905023859 81 155 0.0 2.0 0.00 0.01 0.01 84 1015.4
20260905023630 81 171 1.0 2.0 0.00 0.01 0.01 84 1015.3
20260905022855 81 127 1.0 2.0 0.00 0.01 0.01 84 1015.3
20260905022356 81 136 1.0 2.0 0.00 0.01 0.01 84 1015.3
20260905021847 81 124 0.0 0.0 0.00 0.01 0.01 84 1015.2
20260905021617 81 107 0.0 0.0 0.00 0.01 0.01 83 1015.2
20260905020845 82 107 0.0 0.0 0.00 0.01 0.01 83 1015.3
20260905020343 82 107 0.0 0.0 0.00 0.01 0.01 83 1015.2
20260905020115 82 105 0.0 0.0 0.00 0.01 0.01 83 1015.0
20260905015607 82 105 0.0 0.0 0.00 0.01 0.01 82 1014.9
20260905014835 82 105 0.0 2.0 0.00 0.01 0.01 82 1014.8
20260905014607 82 105 0.0 2.0 0.00 0.01 0.01 81 1014.8
20260905013831 82 101 0.0 0.0 0.00 0.01 0.01 81 1014.8
20260905013332 83 105 0.0 0.0 0.00 0.01 0.01 81 1014.6
20260905012828 83 105 0.0 0.0 0.00 0.01 0.01 81 1014.6
20260905012327 83 103 0.0 0.0 0.00 0.01 0.01 80 1014.5
20260905011825 83 104 0.0 0.0 0.00 0.01 0.01 80 1014.5
20260905011327 83 104 0.0 2.0 0.00 0.01 0.01 79 1014.5
20260905011055 84 117 1.0 2.0 0.00 0.01 0.01 78 1014.4
20260905010324 84 78 1.0 2.0 0.00 0.01 0.01 78 1014.4
20260905005823 84 109 1.0 3.0 0.00 0.01 0.01 78 1014.4
20260905005321 84 143 1.0 3.0 0.00 0.01 0.01 78 1014.4
20260905004820 84 165 1.0 4.0 0.00 0.01 0.01 78 1014.6
20260905004321 84 125 1.0 4.0 0.00 0.01 0.01 77 1014.5
20260905004049 84 111 1.0 3.0 0.00 0.01 0.01 78 1014.6
20260905003319 85 81 2.0 3.0 0.00 0.01 0.01 79 1014.6
20260905003043 85 89 2.0 3.0 0.00 0.01 0.01 78 1014.5
20260905002312 85 76 1.0 3.0 0.00 0.01 0.01 78 1014.6
20260905001811 85 64 1.0 3.0 0.00 0.01 0.01 78 1014.6
20260905001309 85 78 1.0 3.0 0.00 0.01 0.01 77 1014.6
20260905000809 85 71 2.0 4.0 0.00 0.01 0.01 75 1014.6
20260905000310 85 105 2.0 4.0 0.00 0.01 0.01 75 1014.8
20260904235807 85 96 2.0 4.0 0.00 0.01 0.01 75 1014.6
20260904235309 85 92 2.0 4.0 0.00 0.01 0.01 75 1014.7
20260904234808 86 87 2.0 5.0 0.00 0.01 0.01 75 1014.6
20260904234306 86 78 3.0 5.0 0.00 0.01 0.01 75 1014.6
20260904233804 86 115 2.0 5.0 0.00 0.01 0.01 75 1014.6
20260904233306 86 59 3.0 6.0 0.00 0.01 0.01 75 1014.5
20260904232759 86 84 3.0 6.0 0.00 0.01 0.01 75 1014.6
20260904232530 87 94 3.0 7.0 0.00 0.01 0.01 74 1014.5
20260904231758 87 110 3.0 7.0 0.00 0.01 0.01 74 1014.5
20260904231530 87 112 3.0 6.0 0.00 0.01 0.01 74 1014.5
20260904230759 87 105 4.0 6.0 0.00 0.01 0.01 73 1014.2
20260904230259 87 112 4.0 8.0 0.00 0.01 0.01 72 1014.2
20260904225752 87 109 4.0 8.0 0.00 0.01 0.01 71 1014.1
20260904225249 87 137 3.0 7.0 0.00 0.01 0.01 69 1014.1
20260904224749 88 117 2.0 7.0 0.00 0.01 0.01 69 1014.0
20260904224251 88 102 3.0 7.0 0.00 0.01 0.01 69 1013.9
20260904223750 88 90 4.0 7.0 0.00 0.01 0.01 69 1013.9
20260904223249 88 100 3.0 7.0 0.00 0.01 0.01 70 1013.9
20260904222742 88 124 3.0 8.0 0.00 0.01 0.01 70 1013.9
20260904222508 88 101 4.0 8.0 0.00 0.01 0.01 70 1013.8
20260904221737 88 66 4.0 8.0 0.00 0.01 0.01 70 1013.9
20260904221238 88 90 4.0 10.0 0.00 0.01 0.01 70 1013.8
20260904220737 88 71 5.0 10.0 0.00 0.01 0.01 70 1013.8
20260904220237 88 68 5.0 9.0 0.00 0.01 0.01 71 1013.8
20260904220010 88 103 4.0 9.0 0.00 0.01 0.01 71 1013.9
20260904215233 88 81 3.0 7.0 0.00 0.01 0.01 71 1013.8
20260904215006 88 65 4.0 8.0 0.00 0.01 0.01 71 1013.8
20260904214506 89 82 4.0 8.0 0.00 0.01 0.01 70 1013.8
20260904213733 89 100 3.0 7.0 0.00 0.01 0.01 69 1013.9
20260904213234 89 84 3.0 7.0 0.00 0.01 0.01 66 1014.0
20260904212734 90 88 2.0 4.0 0.00 0.01 0.01 65 1014.0
20260904212230 90 96 2.0 3.0 0.00 0.01 0.01 64 1014.2
20260904211729 90 53 2.0 6.0 0.00 0.01 0.01 63 1014.2
20260904211229 90 84 2.0 6.0 0.00 0.01 0.01 63 1014.2
20260904210729 90 63 3.0 6.0 0.00 0.01 0.01 64 1014.3
20260904210230 90 74 3.0 8.0 0.00 0.01 0.01 62 1014.2
20260904205730 90 28 3.0 8.0 0.00 0.01 0.01 64 1014.3
20260904205225 90 80 3.0 7.0 0.00 0.01 0.01 65 1014.4
20260904204727 90 62 2.0 6.0 0.00 0.01 0.01 65 1014.3
20260904204220 90 91 2.0 7.0 0.00 0.01 0.01 65 1014.3
20260904203716 90 13 2.0 7.0 0.00 0.01 0.01 64 1014.3
20260904203218 91 35 1.0 6.0 0.00 0.01 0.01 61 1014.4